Location: ???????
(54.6339°N, 39.4245°E)
Time: 11:22:55
(UTC+00:00)

USA 234 - Pass Details

Date: 19 May 2025
Orbit: 1097 x 1111 km, 123.0° (Epoch: 11 June)

Event Time Altitude Azimuth Distance (km) Brightness Sun altitude
Rises 18:58:58 0° 63° (ENE) 3,925 6.1 -9.6°
Reaches altitude 10° 19:01:29 10° 67° (ENE) 2,967 5.4 -9.8°
Maximum altitude 19:07:59 63° 148° (SSE) 1,228 3.3 -10.3°
Drops below altitude 10° 19:14:29 10° 229° (SW) 2,967 5.4 -10.8°
Sets 19:17:00 0° 232° (SW) 3,924 6.1 -11.0°
